User: anonymous   Login
Location: Beverley
(50.2667°N, 107.9667°W)
Time: 20:47:11
(UTC+00:00)
Language:

XW-2B - Orbit

View from above orbital plane
View from above orbital plane
View from above satellite
View from above satellite

Ground track
Ground track

The orbit data is extracted from the following two-line orbital elements,

1 40911U 15049N   22177.48005581  .00005452  00000-0  25794-3 0  9990
2 40911  97.4899 181.4071 0012105 333.0965 179.5584 15.19721281374227
Epoch (UTC): 26 June 2022 11:31:16
Eccentricity: 0.0012105
inclination: 97.4899°
perigee height: 498 km
apogee height: 515 km
right ascension of ascending node: 181.4071°
argument of perigee: 333.0965°
revolutions per day: 15.19721281
mean anomaly at epoch: 179.5584°
orbit number at epoch: 37422

The dashed part of the orbit path shows where the satellite is in the earth's shadow,  

DLR